When you browse on this site, cookies collect data to enhance your experience and personalize the content and advertising you see.
Visit our Privacy Policy to learn more. By continuing to use the site, you agree to this use of cookies and data.

Stündliche Wetter Mérida

Heute, 14 Juli, Dienstag

Zeit Temperatur Niederschläge Wind Luftdruck Luftfeuchtigkeit
00:00 +14°C° 0.1 mm 2 m/S 593 mmHg 91%
01:00 +14°C° 0.1 mm 2 m/S 593 mmHg 90%
02:00 +14°C° 0 mm 2 m/S 592 mmHg 89%
03:00 +14°C° 0 mm 2 m/S 592 mmHg 88%
04:00 +13°C° 0 mm 2 m/S 591 mmHg 86%
05:00 +15°C° 0 mm 2 m/S 592 mmHg 84%
06:00 +16°C° 0 mm 2 m/S 593 mmHg 81%
07:00 +17°C° 0 mm 2 m/S 594 mmHg 79%
08:00 +17°C° 0.4 mm 2 m/S 595 mmHg 78%
09:00 +18°C° 0.4 mm 2 m/S 595 mmHg 78%
10:00 +20°C° 0.4 mm 1 m/S 595 mmHg 78%
11:00 +20°C° 0.9 mm 1 m/S 595 mmHg 80%
12:00 +19°C° 0.9 mm 1 m/S 595 mmHg 82%
13:00 +19°C° 0.9 mm 1 m/S 594 mmHg 84%
14:00 +19°C° 0.5 mm 1 m/S 594 mmHg 85%
15:00 +18°C° 0.5 mm 1 m/S 593 mmHg 86%
16:00 +18°C° 0.5 mm 1 m/S 592 mmHg 87%
17:00 +18°C° 0.1 mm 1 m/S 593 mmHg 87%
18:00 +16°C° 0.1 mm 2 m/S 593 mmHg 87%
19:00 +16°C° 0.1 mm 2 m/S 593 mmHg 87%
20:00 +16°C° 0 mm 2 m/S 593 mmHg 86%
21:00 +16°C° 0 mm 2 m/S 593 mmHg 85%
22:00 +15°C° 0 mm 2 m/S 594 mmHg 84%
23:00 +15°C° 0.1 mm 2 m/S 593 mmHg 84%

Morgen, 15 Juli, Mittwoch

Zeit Temperatur Niederschläge Wind Luftdruck Luftfeuchtigkeit
00:00 +15°C° 0.1 mm 2 m/S 593 mmHg 85%
01:00 +14°C° 0.1 mm 2 m/S 593 mmHg 86%
02:00 +14°C° 0 mm 2 m/S 592 mmHg 85%
03:00 +14°C° 0 mm 2 m/S 592 mmHg 84%
04:00 +14°C° 0 mm 2 m/S 592 mmHg 83%
05:00 +15°C° 0 mm 2 m/S 592 mmHg 79%
06:00 +16°C° 0 mm 2 m/S 593 mmHg 74%
07:00 +16°C° 0 mm 2 m/S 594 mmHg 70%
08:00 +18°C° 0 mm 2 m/S 595 mmHg 64%
09:00 +20°C° 0 mm 2 m/S 596 mmHg 57%
10:00 +23°C° 0 mm 2 m/S 596 mmHg 51%
11:00 +21°C° 0.2 mm 2 m/S 596 mmHg 56%
12:00 +21°C° 0.2 mm 2 m/S 595 mmHg 62%
13:00 +21°C° 0.2 mm 2 m/S 594 mmHg 67%
14:00 +20°C° 0.8 mm 2 m/S 594 mmHg 74%
15:00 +19°C° 0.8 mm 2 m/S 593 mmHg 82%
16:00 +20°C° 0.8 mm 1 m/S 592 mmHg 89%
17:00 +19°C° 0.7 mm 1 m/S 592 mmHg 91%
18:00 +18°C° 0.7 mm 1 m/S 592 mmHg 93%
19:00 +16°C° 0.7 mm 1 m/S 592 mmHg 95%
20:00 +15°C° 0.3 mm 1 m/S 592 mmHg 94%
21:00 +15°C° 0.3 mm 1 m/S 592 mmHg 92%
22:00 +14°C° 0.3 mm 2 m/S 592 mmHg 91%
23:00 +14°C° 0 mm 2 m/S 592 mmHg 90%

übermorgen, 16 Juli, Donnerstag

Zeit Temperatur Niederschläge Wind Luftdruck Luftfeuchtigkeit
00:00 +14°C° 0 mm 2 m/S 592 mmHg 89%
01:00 +14°C° 0 mm 2 m/S 591 mmHg 88%
02:00 +14°C° 0 mm 2 m/S 591 mmHg 88%
03:00 +14°C° 0 mm 2 m/S 591 mmHg 88%
04:00 +14°C° 0 mm 2 m/S 591 mmHg 89%
05:00 +15°C° 0 mm 2 m/S 592 mmHg 87%
06:00 +16°C° 0 mm 2 m/S 593 mmHg 85%
07:00 +16°C° 0 mm 2 m/S 593 mmHg 83%
08:00 +18°C° 0.2 mm 2 m/S 594 mmHg 80%
09:00 +19°C° 0.2 mm 2 m/S 595 mmHg 77%
10:00 +20°C° 0.2 mm 2 m/S 595 mmHg 74%
11:00 +20°C° 0.8 mm 2 m/S 595 mmHg 78%
12:00 +21°C° 0.8 mm 1 m/S 594 mmHg 82%
13:00 +20°C° 0.8 mm 1 m/S 593 mmHg 85%
14:00 +20°C° 0.9 mm 1 m/S 593 mmHg 86%
15:00 +20°C° 0.9 mm 1 m/S 592 mmHg 87%
16:00 +20°C° 0.9 mm 1 m/S 592 mmHg 88%
17:00 +19°C° 0.8 mm 1 m/S 592 mmHg 91%
18:00 +18°C° 0.8 mm 1 m/S 592 mmHg 93%
19:00 +16°C° 0.8 mm 1 m/S 592 mmHg 96%
20:00 +16°C° 0.5 mm 1 m/S 592 mmHg 95%
21:00 +15°C° 0.5 mm 1 m/S 593 mmHg 94%
22:00 +15°C° 0.5 mm 1 m/S 593 mmHg 94%
23:00 +15°C° 0.4 mm 1 m/S 593 mmHg 93%

17 Juli, Freitag

Zeit Temperatur Niederschläge Wind Luftdruck Luftfeuchtigkeit
00:00 +15°C° 0.4 mm 1 m/S 592 mmHg 93%
01:00 +15°C° 0.4 mm 1 m/S 592 mmHg 93%
02:00 +15°C° 0.1 mm 1 m/S 592 mmHg 93%
03:00 +15°C° 0.1 mm 1 m/S 592 mmHg 93%
04:00 +14°C° 0.1 mm 1 m/S 592 mmHg 93%
05:00 +15°C° 0 mm 1 m/S 592 mmHg 91%
06:00 +16°C° 0 mm 1 m/S 593 mmHg 90%
07:00 +16°C° 0 mm 1 m/S 593 mmHg 88%
08:00 +17°C° 0.4 mm 2 m/S 594 mmHg 86%
09:00 +19°C° 0.4 mm 2 m/S 594 mmHg 83%
10:00 +20°C° 0.4 mm 2 m/S 595 mmHg 81%
11:00 +20°C° 1.2 mm 2 m/S 595 mmHg 83%
12:00 +20°C° 1.2 mm 2 m/S 594 mmHg 84%
13:00 +20°C° 1.2 mm 2 m/S 594 mmHg 86%
14:00 +20°C° 1.2 mm 1 m/S 593 mmHg 86%
15:00 +20°C° 1.2 mm 1 m/S 593 mmHg 87%
16:00 +20°C° 1.2 mm 1 m/S 592 mmHg 88%
17:00 +19°C° 0.8 mm 1 m/S 592 mmHg 90%
18:00 +18°C° 0.8 mm 1 m/S 592 mmHg 92%
19:00 +16°C° 0.8 mm 1 m/S 592 mmHg 94%
20:00 +16°C° 0.4 mm 1 m/S 592 mmHg 93%
21:00 +16°C° 0.4 mm 1 m/S 593 mmHg 93%
22:00 +15°C° 0.4 mm 1 m/S 593 mmHg 92%
23:00 +15°C° 0.1 mm 1 m/S 593 mmHg 92%

18 Juli, Samstag

Zeit Temperatur Niederschläge Wind Luftdruck Luftfeuchtigkeit
00:00 +15°C° 0.1 mm 1 m/S 592 mmHg 92%
01:00 +15°C° 0.1 mm 1 m/S 592 mmHg 92%
02:00 +15°C° 0 mm 1 m/S 592 mmHg 91%
03:00 +14°C° 0 mm 1 m/S 592 mmHg 91%
04:00 +14°C° 0 mm 1 m/S 592 mmHg 91%
05:00 +15°C° 0 mm 1 m/S 592 mmHg 89%
06:00 +16°C° 0 mm 1 m/S 593 mmHg 87%
07:00 +18°C° 0 mm 1 m/S 593 mmHg 85%
08:00 +18°C° 0.3 mm 2 m/S 594 mmHg 83%
09:00 +19°C° 0.3 mm 2 m/S 595 mmHg 80%
10:00 +20°C° 0.3 mm 2 m/S 595 mmHg 77%
11:00 +20°C° 1 mm 2 m/S 595 mmHg 79%
12:00 +20°C° 1 mm 2 m/S 594 mmHg 80%
13:00 +21°C° 1 mm 1 m/S 594 mmHg 82%
14:00 +21°C° 0.8 mm 1 m/S 593 mmHg 82%
15:00 +21°C° 0.8 mm 1 m/S 593 mmHg 82%
16:00 +21°C° 0.8 mm 1 m/S 592 mmHg 82%
17:00 +20°C° 0.6 mm 1 m/S 592 mmHg 86%
18:00 +18°C° 0.6 mm 1 m/S 592 mmHg 90%
19:00 +16°C° 0.6 mm 1 m/S 591 mmHg 95%
20:00 +15°C° 0.2 mm 1 m/S 592 mmHg 93%
21:00 +15°C° 0.2 mm 1 m/S 592 mmHg 92%
22:00 +15°C° 0.2 mm 1 m/S 592 mmHg 91%
23:00 +14°C° 0 mm 1 m/S 592 mmHg 89%

19 Juli, Sonntag

Zeit Temperatur Niederschläge Wind Luftdruck Luftfeuchtigkeit
00:00 +14°C° 0 mm 1 m/S 591 mmHg 88%
01:00 +14°C° 0 mm 2 m/S 591 mmHg 87%
02:00 +14°C° 0 mm 2 m/S 591 mmHg 87%
03:00 +14°C° 0 mm 2 m/S 591 mmHg 87%
04:00 +14°C° 0 mm 2 m/S 591 mmHg 86%
05:00 +15°C° 0 mm 2 m/S 592 mmHg 85%
06:00 +16°C° 0 mm 1 m/S 592 mmHg 83%
07:00 +18°C° 0 mm 1 m/S 593 mmHg 81%
08:00 +19°C° 0.1 mm 1 m/S 594 mmHg 75%
09:00 +20°C° 0.1 mm 2 m/S 595 mmHg 70%
10:00 +21°C° 0.1 mm 2 m/S 595 mmHg 65%
11:00 +21°C° 0.7 mm 2 m/S 595 mmHg 70%
12:00 +21°C° 0.7 mm 2 m/S 594 mmHg 74%
13:00 +22°C° 0.7 mm 1 m/S 594 mmHg 79%
14:00 +21°C° 1 mm 1 m/S 593 mmHg 81%
15:00 +21°C° 1 mm 1 m/S 593 mmHg 83%
16:00 +21°C° 1 mm 1 m/S 592 mmHg 85%
17:00 +20°C° 1 mm 1 m/S 592 mmHg 89%
18:00 +18°C° 1 mm 1 m/S 592 mmHg 92%
19:00 +16°C° 1 mm 1 m/S 591 mmHg 96%
20:00 +16°C° 0.3 mm 1 m/S 591 mmHg 95%
21:00 +15°C° 0.3 mm 1 m/S 592 mmHg 94%
22:00 +15°C° 0.3 mm 1 m/S 592 mmHg 92%
23:00 +15°C° 0 mm 1 m/S 592 mmHg 92%
Mehr zeigen